Dewpoint
60 56 57 55 40 36 26 20 22 27 29 32 34 34 33 34 34 36 38 42 44 47 48 50 52 52 52 52 51 50 50 50 50 50 50 50 50 50 50 49 49 50 51 52 52 52 52 51 50
50 51 52 41 36 25 16 25 26 28 31 31 30 31 31 32 36 37 38 41 41 45 48 48 51 51 51 51 49 48 48 48 49 48 48 48 49 49 48 48 48 49 50 51 51 51 50 50 49
54 52 39 34 29 21 16 25 26 28 28 28 28 29 31 34 36 37 39 39 39 43 48 48 50 49 49 50 48 46 47 46 48 47 47 47 47 48 47 47 46 47 49 50 50 50 49 48 48
50 42 33 27 18 15 20 24 26 25 26 27 28 28 31 36 36 38 38 35 39 43 46 48 50 47 47 48 47 45 45 44 46 46 46 46 46 45 45 46 46 46 47 48 48 48 48 47 46
42 32 23 21 19 21 22 21 23 23 26 26 27 28 31 33 37 37 34 35 39 42 44 44 47 45 46 47 46 44 41 43 45 44 45 45 44 43 44 43 44 44 45 46 46 46 46 46 46
29 25 19 18 15 19 23 22 21 23 26 26 27 30 30 34 35 32 33 38 40 42 44 41 46 48 45 45 45 42 41 44 43 43 44 44 42 41 40 42 42 43 44 45 45 45 45 45 45
27 21 16 13 12 18 25 24 22 24 25 25 27 29 30 33 33 31 36 42 45 46 48 46 45 45 45 46 42 41 44 43 40 39 41 42 43 43 42 39 38 41 43 44 44 44 44 44 44
23 18 11 10 10 23 24 24 24 24 25 26 27 28 29 33 32 32 36 42 45 49 50 49 48 45 46 46 42 42 44 40 38 38 39 41 42 40 40 38 38 39 40 41 42 42 41 42 42
19 14 12 11 16 19 22 20 26 27 26 26 26 28 32 34 30 33 36 39 44 45 49 51 48 47 46 45 43 45 46 43 42 43 41 41 38 40 37 37 37 37 37 38 39 38 39 40 40
17 17 14 15 18 18 16 21 25 25 25 25 26 29 33 32 30 32 35 37 40 43 45 47 49 47 46 34 45 47 44 43 43 42 43 42 42 39 34 36 37 36 37 37 37 38 38 37 34
15 15 15 11 20 18 13 14 22 23 23 25 26 30 32 29 30 31 32 35 37 40 40 41 48 48 46 45 42 42 41 42 42 44 43 43 39 39 38 36 36 37 36 35 34 35 33 35 36
10 13 15 15 18 18 12 16 21 22 25 26 28 31 31 28 29 29 30 32 35 37 37 40 44 49 48 44 42 43 40 41 40 41 43 41 38 38 39 36 36 37 37 37 37 35 35 36 35
10 13 13 17 18 17 18 17 17 22 24 24 28 30 30 28 29 29 28 30 34 36 40 42 45 48 47 48 46 45 44 41 41 42 43 40 39 38 37 36 36 37 37 37 35 34 34 34 33
12 13 14 12 16 17 19 17 21 21 24 23 28 29 28 28 28 27 28 30 36 38 40 45 45 48 46 46 46 45 44 41 41 40 40 39 39 39 37 35 35 36 37 37 35 34 34 33 34
16 13 10 8 13 17 21 18 15 21 23 23 25 27 27 27 27 28 30 34 36 38 40 45 47 47 46 46 45 43 41 38 39 38 40 38 39 38 38 35 35 36 38 37 34 34 34 34 32
11 12 12 11 13 18 19 16 15 23 22 22 23 25 26 26 25 27 30 30 32 36 41 43 37 45 46 46 45 42 40 41 38 38 38 38 38 38 36 34 33 37 37 36 35 34 33 32 32
14 10 12 12 17 18 18 16 15 22 21 22 23 24 25 25 25 28 29 30 31 37 41 41 45 44 45 46 45 43 41 39 38 38 36 38 37 37 36 34 33 37 36 36 34 34 32 31 31
14 8 4 5 6 16 14 14 14 18 20 22 22 23 24 24 23 27 30 31 31 38 41 42 44 45 45 46 43 39 38 38 37 37 36 36 36 37 36 34 35 34 34 34 34 32 31 31 30
12 11 10 11 12 13 13 13 14 17 18 21 21 22 23 25 24 28 33 36 37 41 41 41 43 45 43 40 37 36 35 36 36 36 36 36 36 37 36 34 34 34 32 34 33 32 31 30 29
14 14 13 13 17 17 15 13 15 14 16 20 21 22 23 24 23 27 32 36 41 41 42 41 41 41 40 37 36 37 37 35 36 36 36 37 36 37 33 35 34 33 32 34 34 32 31 30 30
15 16 17 18 16 15 14 13 13 16 20 21 23 23 23 24 23 28 32 38 40 41 43 40 40 40 39 38 35 37 38 36 34 32 34 34 35 35 35 34 33 33 34 32 34 34 31 32 31
17 17 18 18 18 17 20 17 25 26 24 25 24 27 24 23 25 28 32 37 39 41 43 41 40 38 36 38 36 37 33 31 33 33 34 32 36 35 34 34 33 34 33 32 33 33 33 34 32
18 21 22 23 24 25 21 21 28 29 30 33 27 22 28 26 27 29 33 36 37 40 42 42 40 37 37 38 37 35 35 33 32 32 33 34 34 35 33 33 33 32 32 32 33 33 32 33 33
23 26 25 26 25 31 29 29 33 32 28 26 26 25 24 25 27 30 36 37 36 38 42 43 39 34 36 36 37 37 36 34 32 32 31 32 32 31 32 32 32 32 31 32 32 33 34 35 35
25 24 33 30 33 31 27 26 36 31 28 26 24 23 27 27 32 34 34 34 37 40 42 40 35 29 33 35 36 36 36 35 33 32 31 31 30 29 31 32 32 31 32 33 36 36 36 35 34
25 27 35 27 24 26 26 34 36 38 30 23 22 27 32 33 34 34 35 36 37 39 40 37 30 29 31 34 35 36 35 33 32 33 32 31 29 30 32 32 31 32 34 37 35 34 34 34 34
26 29 32 29 31 31 30 38 39 34 27 25 26 27 29 31 33 34 36 38 39 40 40 38 33 30 32 34 35 35 35 35 33 34 33 31 32 29 30 31 31 32 35 34 35 34 33 33 33
31 31 32 35 28 25 28 34 35 35 35 27 28 28 28 31 33 35 36 39 39 40 39 38 36 32 33 34 34 32 34 34 34 32 31 32 32 31 30 30 32 33 34 35 33 33 32 32 32
37 35 37 37 34 29 28 33 40 36 34 31 31 29 33 34 35 36 37 38 38 38 37 37 35 33 34 34 35 35 34 33 32 30 31 31 32 30 29 31 32 35 32 33 33 32 32 32 32
35 36 38 33 33 35 33 36 44 41 34 31 31 33 35 35 36 36 37 37 36 34 32 33 36 34 33 33 35 34 34 32 30 30 30 31 29 30 29 30 33 33 31 32 32 32 32 32 31
Lifted_Index
5 4 2 1 2 2 1 1 1 3 4 5 5 5 5 5 5 6 9 10 11 11 12 12 12 12 12 12 13 13 13 13 14 14 14 14 14 14 15 15 15 14 14 14 13 13 13 14 14
4 3 2 2 2 2 1 1 2 3 4 5 5 5 5 5 6 7 9 10 11 11 11 12 12 12 12 13 13 14 14 14 14 14 15 15 15 15 15 15 15 15 14 14 14 14 14 14 14
3 3 3 3 3 2 1 2 3 4 5 5 5 6 6 6 8 9 10 11 11 11 11 12 12 13 13 13 14 14 14 14 14 15 15 15 15 15 15 16 16 15 15 15 14 14 15 15 15
2 3 3 3 2 1 1 2 3 4 5 5 6 6 7 8 9 10 11 12 12 11 12 13 13 14 14 13 14 15 15 15 14 15 15 15 15 16 16 16 16 16 16 15 15 15 15 15 15
3 4 3 3 1 1 2 2 3 4 5 5 6 6 7 9 10 11 12 12 12 12 13 14 14 14 14 14 14 15 15 15 15 15 15 15 16 16 16 16 16 16 16 16 16 16 16 16 16
4 4 3 2 0 1 2 3 4 4 5 5 6 6 7 9 11 12 12 12 12 12 13 14 14 14 15 15 15 15 15 15 15 15 15 16 16 16 16 16 17 17 17 16 16 16 16 16 16
4 4 3 1 0 1 2 3 4 4 5 5 6 6 7 9 11 12 12 12 12 12 12 13 14 14 14 15 15 15 15 15 15 16 16 16 16 16 16 16 17 17 17 17 17 17 16 16 16
4 4 3 1 0 1 2 4 4 5 5 5 6 6 7 9 11 12 12 12 11 11 12 12 13 13 14 14 15 15 14 15 16 16 16 16 16 16 16 16 17 17 17 17 17 17 17 16 16
4 4 3 1 1 2 3 4 4 5 5 6 6 7 8 9 11 12 12 11 11 11 11 12 12 13 13 13 14 13 14 14 15 15 15 15 16 16 16 16 17 17 17 17 17 17 16 16 16
3 3 2 1 2 3 3 4 4 5 5 6 7 7 8 9 10 11 11 11 11 11 11 11 12 12 13 13 13 13 13 13 14 14 15 15 16 16 16 16 17 17 17 17 17 17 16 16 16
1 2 2 2 3 4 4 4 4 5 5 6 6 7 8 9 10 10 10 10 10 10 11 11 11 11 12 12 13 13 13 13 14 14 14 15 15 16 16 16 16 16 17 17 17 17 17 17 17
1 1 2 3 4 5 4 4 4 5 5 5 6 7 7 9 9 10 10 10 10 10 11 11 11 11 11 11 12 13 13 14 14 14 14 15 15 16 16 16 16 16 16 16 17 17 18 18 18
2 2 3 4 5 5 5 5 5 4 5 5 6 7 7 8 9 9 9 9 9 10 10 10 10 10 10 11 11 12 13 13 13 14 14 15 15 16 16 16 16 16 16 16 17 17 18 18 18
4 4 4 4 5 5 5 5 5 4 5 5 6 6 7 8 8 8 8 9 9 9 9 9 9 9 10 10 11 11 12 13 13 13 14 15 15 16 16 16 16 16 16 16 17 18 18 18 18
4 4 4 3 4 5 5 5 4 4 5 5 6 6 7 7 8 8 8 8 8 8 8 8 9 9 9 10 10 11 12 12 13 13 14 14 15 16 16 16 16 15 15 16 17 17 17 18 18
4 3 3 2 2 4 5 4 4 4 5 5 6 6 7 7 7 7 7 7 7 7 7 8 8 9 9 9 10 10 11 12 12 13 13 14 15 15 16 16 16 15 15 16 16 17 17 17 18
3 2 1 1 1 2 4 4 3 3 4 5 5 6 6 6 7 7 6 6 6 6 7 7 8 8 8 9 9 10 11 12 12 12 13 14 14 15 15 16 16 15 15 15 16 16 17 18 18
2 2 2 1 1 2 3 3 3 2 3 4 4 4 5 5 6 6 5 5 5 6 6 7 7 8 8 9 10 11 11 11 12 12 13 13 14 14 15 15 16 16 15 15 16 16 17 18 18
3 3 3 3 3 3 3 4 3 2 2 2 2 3 3 4 4 5 5 5 5 5 6 6 7 8 8 9 10 11 11 12 12 12 12 13 13 14 14 15 15 15 15 15 16 16 17 18 18
4 4 4 4 4 4 4 4 3 2 1 1 1 1 2 3 4 4 4 4 4 5 6 6 7 8 9 10 11 11 11 11 12 12 12 13 13 14 14 14 15 15 15 15 15 16 16 17 17
4 4 4 4 5 4 4 3 2 1 0 1 1 1 2 3 4 4 4 4 4 5 6 6 7 8 9 10 11 11 11 11 12 12 12 13 13 13 14 14 15 15 15 14 14 14 15 15 15
4 4 5 5 5 4 3 2 0 -0 0 1 1 1 2 3 4 4 4 4 4 5 6 7 7 8 9 10 11 11 11 12 12 12 13 13 13 13 14 14 14 14 14 13 13 13 13 14 14
4 4 4 4 3 2 1 -0 -0 -0 0 1 1 1 1 2 4 4 3 3 4 5 6 7 8 9 10 10 11 11 12 12 12 12 12 13 13 13 13 13 13 13 13 13 13 13 13 13 13
4 3 3 2 1 0 -0 -1 -0 -0 0 1 1 1 2 3 3 3 3 4 4 5 6 7 8 9 10 10 11 11 12 12 12 12 12 13 13 13 13 13 13 13 13 13 13 13 13 13 13
3 2 1 1 0 -0 -1 -0 -0 1 1 1 2 2 3 3 4 4 4 4 5 5 6 7 8 9 10 11 11 11 11 12 12 12 13 13 13 13 13 13 13 13 13 13 13 13 13 14 14
2 1 0 0 -0 -0 -0 -0 0 1 2 2 3 3 3 3 4 4 4 5 5 6 6 7 9 10 11 11 11 11 11 11 12 12 13 13 13 13 13 13 13 14 14 14 14 14 14 14 14
1 0 -0 -0 -0 -0 -0 0 1 1 2 3 3 4 4 4 4 4 5 5 5 6 7 8 9 10 11 11 11 11 11 11 12 12 13 13 13 13 14 14 14 14 14 14 14 15 15 14 14
-0 -0 -1 -0 -0 -0 0 0 0 1 2 3 4 4 4 4 4 5 5 5 6 7 8 9 10 10 10 10 10 11 11 11 12 12 13 13 13 14 14 15 15 15 15 14 14 14 14 14 14
-1 -1 -1 -0 0 1 0 0 0 1 1 3 4 4 4 4 5 5 5 6 6 7 9 9 10 10 10 10 10 11 11 12 12 13 13 14 14 14 15 15 15 15 14 14 14 13 13 13 13
-1 -1 -0 0 1 1 1 0 0 1 1 3 4 4 4 5 5 5 5 6 7 8 9 10 10 10 10 10 10 11 11 12 13 13 14 14 14 15 15 16 15 15 14 14 14 13 12 12 11